Weather History for Huntingburg, IN

Change the Weather History Date:

Monday, March 18, 2013

  Actual Average Record
Temperature  
Mean Temperature 42 °F -  
Max Temperature 48 °F 52 °F 80 °F (2012)
Min Temperature 37 °F 34 °F 24 °F (2001)
Degree Days  
Heating Degree Days 22    
Moisture  
Dew Point 38 °F    
Average Humidity 85    
Maximum Humidity 93    
Minimum Humidity 76    
Precipitation  
Precipitation 0.04 in - - ()
Sea Level Pressure  
Sea Level Pressure 29.77 in    
Wind  
Wind Speed 11 mph (WSW)    
Max Wind Speed 22 mph    
Max Gust Speed 36 mph    
Visibility 9 miles    
Events Thunderstorm    
Averages and records for this station are not official NWS values.
T = Trace of Precipitation, MM = Missing Value Source: NWS Daily Summary

Daily Weather History Graph

Daily Weather History Graph

Search for Another Location

Airport:

Trip Planner

Search our weather history database for the weather conditions in past years. The results will help you decide how hot, cold, wet, or windy it might be!

Date:

Astronomy

Mar. 18, 2013 Rise Set
Actual Time 7:53 AM EDT 7:58 PM EDT
Civil Twilight 7:27 AM EDT 8:24 PM EDT
Nautical Twilight 6:56 AM EDT 8:55 PM EDT
Astronomical Twilight 6:25 AM EDT 9:26 PM EDT
Moon 11:58 AM EDT (3/18) 1:52 AM EDT (3/18)
Length of Visible Light 12h 56m
Length of Day
12h 04m
Waxing Crescent, 40% of the Moon is Illuminated
Mar 18
Waxing Crescent
Mar 19
First Quarter
Mar 27
Full
Apr 3
Last Quarter
Apr 10
New

Hourly Weather History & Observations

Time (EDT) Temp. Windchill Dew Point Humidity Pressure Visibility Wind Dir Wind Speed Gust Speed Precip Events Conditions
12:35 AM 37.4 °F 29.3 °F 33.8 °F 87% 29.83 in 10.0 mi East 12.7 mph 23.0 mph 0.01 in   Overcast
12:55 AM 37.4 °F 29.8 °F 33.8 °F 87% 29.85 in 10.0 mi East 11.5 mph 20.7 mph 0.01 in   Overcast
1:15 AM 37.4 °F 29.3 °F 33.8 °F 87% 29.83 in 10.0 mi East 12.7 mph - N/A   Overcast
1:35 AM 37.4 °F 32.8 °F 33.8 °F 87% 29.83 in 10.0 mi NE 5.8 mph - N/A   Overcast
1:55 AM 37.4 °F 31.4 °F 33.8 °F 87% 29.84 in 10.0 mi NNE 8.1 mph - N/A   Overcast
2:15 AM 37.4 °F 30.8 °F 33.8 °F 87% 29.83 in 10.0 mi North 9.2 mph - N/A   Overcast
2:35 AM 37.4 °F 29.8 °F 33.8 °F 87% 29.84 in 10.0 mi North 11.5 mph - 0.01 in   Overcast
3:16 AM 37.4 °F 29.3 °F 33.8 °F 87% 29.85 in 6.0 mi North 12.7 mph 17.3 mph N/A   Overcast
3:35 AM 37.4 °F 26.6 °F 33.8 °F 87% 29.81 in 4.0 mi East 21.9 mph 28.8 mph N/A   Overcast
4:15 AM 37.4 °F 28.5 °F 33.8 °F 87% 29.76 in 4.0 mi East 15.0 mph - N/A   Overcast
4:35 AM 37.4 °F 27.5 °F 33.8 °F 87% 29.72 in 6.0 mi East 18.4 mph 31.1 mph N/A Thunderstorm Thunderstorm
4:55 AM 37.4 °F 30.3 °F 35.6 °F 93% 29.71 in 8.0 mi ESE 10.4 mph 35.7 mph N/A   Overcast
5:15 AM 37.4 °F 33.8 °F 35.6 °F 93% 29.72 in 10.0 mi East 4.6 mph - N/A Thunderstorm Overcast
5:35 AM 39.2 °F 33.0 °F 35.6 °F 87% 29.70 in 10.0 mi ESE 9.2 mph - N/A   Overcast
6:15 AM 39.2 °F 31.6 °F 35.6 °F 87% 29.66 in 10.0 mi ESE 12.7 mph - N/A   Mostly Cloudy
6:35 AM 39.2 °F 35.0 °F 37.4 °F 93% 29.70 in 10.0 mi SE 5.8 mph - N/A   Mostly Cloudy
6:55 AM 39.2 °F 33.6 °F 37.4 °F 93% 29.68 in 10.0 mi ESE 8.1 mph - N/A   Mostly Cloudy
7:15 AM 39.2 °F 33.0 °F 37.4 °F 93% 29.66 in 10.0 mi SE 9.2 mph - N/A   Overcast
7:35 AM 39.2 °F 33.6 °F 37.4 °F 93% 29.66 in 10.0 mi ESE 8.1 mph - N/A   Overcast
7:55 AM 41.0 °F 35.8 °F 37.4 °F 87% 29.65 in 10.0 mi SE 8.1 mph - 0.02 in   Overcast
8:15 AM 41.0 °F - 39.2 °F 93% 29.67 in 10.0 mi Calm Calm - N/A   Overcast
8:35 AM 41.0 °F - 39.2 °F 93% 29.66 in 10.0 mi Calm Calm - N/A   Overcast
8:55 AM 42.8 °F - 39.2 °F 87% 29.66 in 8.0 mi Calm Calm - N/A   Overcast
9:15 AM 42.8 °F 41.1 °F 39.2 °F 87% 29.66 in 5.0 mi East 3.5 mph - N/A   Overcast
9:35 AM 42.8 °F - 39.2 °F 87% 29.68 in 8.0 mi Calm Calm - N/A   Overcast
9:55 AM 42.8 °F 40.1 °F 39.2 °F 87% 29.69 in 4.0 mi SSW 4.6 mph - N/A   Overcast
10:15 AM 42.8 °F 38.6 °F 41.0 °F 93% 29.69 in 1.2 mi SSW 6.9 mph - N/A   Overcast
10:35 AM 42.8 °F 38.0 °F 41.0 °F 93% 29.69 in 1.5 mi SW 8.1 mph - N/A   Overcast
10:55 AM 44.6 °F 40.2 °F 41.0 °F 87% 29.68 in 3.0 mi SW 8.1 mph - N/A   Overcast
11:15 AM 44.6 °F 39.2 °F 41.0 °F 87% 29.70 in 2.5 mi SW 10.4 mph - N/A   Overcast
11:35 AM 44.6 °F 39.2 °F 42.8 °F 93% 29.71 in 2.5 mi WSW 10.4 mph - N/A   Overcast
12:15 PM 44.6 °F 39.2 °F 42.8 °F 93% 29.72 in 7.0 mi WSW 10.4 mph 19.6 mph N/A   Overcast
12:35 PM 46.4 °F 41.1 °F 42.8 °F 87% 29.71 in 10.0 mi WSW 11.5 mph - N/A   Overcast
12:55 PM 48.2 °F - 42.8 °F 82% 29.71 in 10.0 mi SW 10.4 mph - N/A   Overcast
1:15 PM 48.2 °F - 42.8 °F 82% 29.70 in 10.0 mi WSW 15.0 mph - N/A   Overcast
1:35 PM 48.2 °F - 44.6 °F 87% 29.71 in 10.0 mi West 15.0 mph - N/A   Overcast
1:55 PM 48.2 °F - 42.8 °F 82% 29.72 in 10.0 mi West 15.0 mph - N/A   Overcast
2:15 PM 48.2 °F - 42.8 °F 82% 29.73 in 10.0 mi West 17.3 mph - N/A   Overcast
2:35 PM 48.2 °F - 42.8 °F 82% 29.73 in 10.0 mi West 18.4 mph - N/A   Overcast
2:55 PM 48.2 °F - 42.8 °F 82% 29.72 in 10.0 mi WSW 16.1 mph - N/A   Overcast
3:15 PM 48.2 °F - 42.8 °F 82% 29.72 in 10.0 mi West 18.4 mph - N/A   Overcast
3:35 PM 46.4 °F 39.2 °F 41.0 °F 81% 29.72 in 10.0 mi West 18.4 mph - N/A   Overcast
3:55 PM 46.4 °F 39.8 °F 41.0 °F 81% 29.72 in 10.0 mi West 16.1 mph - N/A   Overcast
4:15 PM 46.4 °F 40.4 °F 41.0 °F 81% 29.73 in 10.0 mi West 13.8 mph - N/A   Overcast
4:35 PM 46.4 °F 39.8 °F 39.2 °F 76% 29.74 in 10.0 mi West 16.1 mph 21.9 mph N/A   Overcast
4:55 PM 46.4 °F 39.5 °F 39.2 °F 76% 29.76 in 10.0 mi West 17.3 mph 23.0 mph N/A   Overcast
5:15 PM 44.6 °F 36.6 °F 39.2 °F 81% 29.78 in 10.0 mi West 19.6 mph - N/A   Overcast
5:35 PM 44.6 °F 37.4 °F 39.2 °F 81% 29.79 in 10.0 mi West 16.1 mph 21.9 mph N/A   Overcast
5:55 PM 44.6 °F 37.2 °F 37.4 °F 76% 29.80 in 10.0 mi West 17.3 mph - N/A   Overcast
6:15 PM 44.6 °F 38.8 °F 37.4 °F 76% 29.80 in 10.0 mi West 11.5 mph - N/A   Overcast
6:35 PM 44.6 °F 38.4 °F 37.4 °F 76% 29.81 in 10.0 mi West 12.7 mph - N/A   Overcast
6:55 PM 44.6 °F 38.4 °F 37.4 °F 76% 29.83 in 10.0 mi West 12.7 mph - N/A   Overcast
7:15 PM 44.6 °F 38.8 °F 37.4 °F 76% 29.84 in 10.0 mi West 11.5 mph - N/A   Overcast
7:35 PM 42.8 °F 35.1 °F 37.4 °F 81% 29.85 in 10.0 mi West 16.1 mph 20.7 mph N/A   Overcast
7:55 PM 42.8 °F 36.6 °F 35.6 °F 76% 29.86 in 10.0 mi WNW 11.5 mph - N/A   Overcast
8:15 PM 42.8 °F 38.0 °F 35.6 °F 76% 29.87 in 10.0 mi WNW 8.1 mph - N/A   Overcast
8:35 PM 42.8 °F 36.6 °F 35.6 °F 76% 29.88 in 10.0 mi West 11.5 mph 16.1 mph N/A   Overcast
9:15 PM 39.2 °F 33.6 °F 35.6 °F 87% 29.89 in 10.0 mi West 8.1 mph - N/A   Scattered Clouds
9:35 PM 39.2 °F 34.2 °F 33.8 °F 81% 29.90 in 10.0 mi WSW 6.9 mph - N/A   Scattered Clouds
9:55 PM 39.2 °F 35.0 °F 33.8 °F 81% 29.90 in 10.0 mi SW 5.8 mph - N/A   Partly Cloudy
10:15 PM 37.4 °F 32.8 °F 33.8 °F 87% 29.91 in 10.0 mi SSW 5.8 mph - N/A   Clear
10:35 PM 37.4 °F 32.8 °F 33.8 °F 87% 29.91 in 10.0 mi SSW 5.8 mph - N/A   Clear
10:55 PM 37.4 °F 32.8 °F 33.8 °F 87% 29.92 in 10.0 mi SSW 5.8 mph - N/A   Clear
11:15 PM 37.4 °F 32.8 °F 33.8 °F 87% 29.93 in 10.0 mi South 5.8 mph - N/A   Clear
11:55 PM 37.4 °F 32.8 °F 33.8 °F 87% 29.92 in 10.0 mi South 5.8 mph - N/A   Clear